This is the latest recevied weather packets stored in our database for station/object SQ7IQO. If no packets are shown the sender has not sent any weather packets the latest 10 day(s).
| Time | Temp. | Humidity | Pressure | Rain* | Wind** | Luminosity | Snow |
|---|---|---|---|---|---|---|---|
| 1787489753 | 18.89° C | - | - | 0 mm | 0.89 m/s, ° | - | - |
| 1787489693 | 18.89° C | - | - | 0 mm | 1.79 m/s, ° | - | - |
| 1787489633 | 18.89° C | - | - | 0 mm | 1.79 m/s, ° | - | - |
| 1787489573 | 18.89° C | - | - | 0 mm | 2.24 m/s, ° | - | - |
| 1787489513 | 19.44° C | - | - | 0 mm | 2.24 m/s, ° | - | - |
| 1787489453 | 20° C | - | - | 0 mm | 1.79 m/s, ° | - | - |
| 1787489393 | 20° C | - | - | 0 mm | 1.34 m/s, ° | - | - |
| 1787489333 | 19.44° C | - | - | 0 mm | 0.89 m/s, ° | - | - |
| 1787489273 | 18.89° C | - | - | 0 mm | 1.34 m/s, ° | - | - |
| 1787489213 | 17.78° C | - | - | 0 mm | 0.45 m/s, ° | - | - |
| 1787489153 | 17.22° C | - | - | 0 mm | 0.89 m/s, ° | - | - |
| 1787489093 | 17.78° C | - | - | 0 mm | 1.79 m/s, ° | - | - |
| 1787489033 | 17.78° C | - | - | 0 mm | 1.34 m/s, ° | - | - |
| 1787488973 | 18.33° C | - | - | 0 mm | 1.34 m/s, ° | - | - |
| 1787488913 | 18.33° C | - | - | 0 mm | 1.34 m/s, ° | - | - |
| 1787488853 | 18.89° C | - | - | 0 mm | 1.79 m/s, ° | - | - |
| 1787488793 | 18.89° C | - | - | 0 mm | 0.89 m/s, ° | - | - |
| 1787488733 | 18.89° C | - | - | 0 mm | 0.89 m/s, ° | - | - |
| 1787488673 | 18.89° C | - | - | 0 mm | 2.24 m/s, ° | - | - |
| 1787488613 | 18.89° C | - | - | 0 mm | 1.34 m/s, ° | - | - |
| 1787488553 | 18.33° C | - | - | 0 mm | 1.79 m/s, ° | - | - |
| 1787488493 | 18.89° C | - | - | 0 mm | 1.79 m/s, ° | - | - |
| 1787488433 | 18.89° C | - | - | 0 mm | 1.79 m/s, ° | - | - |
| 1787488373 | 18.33° C | - | - | 0 mm | 1.34 m/s, ° | - | - |
| 1787488313 | 18.33° C | - | - | 0 mm | 0.89 m/s, ° | - | - |
* Rain latest hour (hover to see other rain measurements)
** Current wind speed in m/s (hover to see current wind gust speed)